TimeMST,TemperatureF,Dew PointF,Humidity,Sea Level PressureIn,VisibilityMPH,Wind Direction,Wind SpeedMPH,Gust SpeedMPH,PrecipitationIn,Events,Conditions,WindDirDegrees,DateUTC
12:53 AM,34.0,18.0,52,29.88,10.0,NNW,3.5,-,N/A,,Partly Cloudy,340,2012-11-29 07:53:00
1:53 AM,39.9,18.0,41,29.86,10.0,Calm,Calm,-,N/A,,Clear,0,2012-11-29 08:53:00
2:53 AM,42.1,19.9,41,29.88,10.0,Variable,5.8,16.1,N/A,,Mostly Cloudy,0,2012-11-29 09:53:00
3:53 AM,43.0,21.9,43,29.88,10.0,WNW,4.6,-,N/A,,Mostly Cloudy,300,2012-11-29 10:53:00
4:53 AM,37.9,18.0,45,29.91,10.0,Calm,Calm,-,N/A,,Mostly Cloudy,0,2012-11-29 11:53:00
5:53 AM,34.0,17.1,50,29.95,10.0,Calm,Calm,-,N/A,,Mostly Cloudy,0,2012-11-29 12:53:00
6:53 AM,37.0,18.0,46,29.96,10.0,Calm,Calm,-,N/A,,Clear,0,2012-11-29 13:53:00
7:53 AM,32.0,18.0,56,29.99,10.0,Variable,4.6,-,N/A,,Clear,0,2012-11-29 14:53:00
8:53 AM,37.0,19.0,48,30.00,10.0,Variable,3.5,-,N/A,,Clear,0,2012-11-29 15:53:00
9:53 AM,43.0,19.9,40,30.01,10.0,Calm,Calm,-,N/A,,Clear,0,2012-11-29 16:53:00
10:53 AM,48.9,24.1,38,29.98,10.0,Variable,6.9,-,N/A,,Clear,0,2012-11-29 17:53:00
11:53 AM,50.0,24.1,36,29.96,10.0,ENE,6.9,-,N/A,,Clear,70,2012-11-29 18:53:00
12:53 PM,50.0,21.9,33,29.97,10.0,Calm,Calm,-,N/A,,Clear,0,2012-11-29 19:53:00
1:53 PM,50.0,23.0,35,29.94,10.0,East,10.4,-,N/A,,Clear,100,2012-11-29 20:53:00
2:53 PM,48.9,23.0,36,29.93,10.0,ESE,9.2,-,N/A,,Clear,110,2012-11-29 21:53:00
3:53 PM,46.9,21.9,37,29.94,10.0,East,6.9,-,N/A,,Clear,90,2012-11-29 22:53:00
4:53 PM,45.0,21.9,40,29.97,10.0,Calm,Calm,-,N/A,,Clear,0,2012-11-29 23:53:00
5:53 PM,42.1,21.9,45,30.00,10.0,Calm,Calm,-,N/A,,Clear,0,2012-11-30 00:53:00
6:53 PM,39.9,21.0,47,29.99,10.0,WSW,9.2,-,N/A,,Clear,250,2012-11-30 01:53:00
7:53 PM,39.0,21.0,49,30.01,10.0,WSW,6.9,-,N/A,,Clear,250,2012-11-30 02:53:00
8:53 PM,37.0,19.9,50,30.01,10.0,WSW,6.9,-,N/A,,Clear,250,2012-11-30 03:53:00
9:53 PM,34.0,21.0,59,29.99,10.0,Calm,Calm,-,N/A,,Clear,0,2012-11-30 04:53:00
10:53 PM,37.0,21.0,52,29.96,10.0,SE,3.5,-,N/A,,Clear,130,2012-11-30 05:53:00
11:53 PM,36.0,21.0,55,29.95,10.0,Calm,Calm,-,N/A,,Scattered Clouds,0,2012-11-30 06:53:00